カタログに戻る

CZ-4C DEB

運用中LEO
NORAD 39015·DEBRIS·🇨🇳 China

打ち上げ Nov 25, 2012 から Jiuquan Satellite Launch Center

Loading…

次のパス (今後24時間)

TLE

最新Source: Space-Track

元期: Sep 13, 2026, 23:16 UTC

1 39015U 12066E   26256.97005695 -.00000004  00000-0  79945-4 0  9998
2 39015  63.3520  82.3011 0449019  28.5528 333.9316 13.45078869677561

AllMySatでCZ-4C DEBをリアルタイム追跡

Download on the App Store